Tracking 35275 objects as of 8-Sep-2026
HD Live streaming from Space Station
objects crossing your sky now

STARLINK-31388

Track STARLINK-31388 now!
10-day predictions
STARLINK-31388 is classified as:


NORAD ID: 59565
Int'l Code: 2024-076B
Launch date: April 23, 2024
Source: United States (US)
Launch site: AIR FORCE EASTERN TEST RANGE (AFETR)
Your satellite tracking list
Your tracking list is empty




NASA's NSSDC Master Catalog

Two Line Element Set (TLE):
1 59565U 24076B   26250.87901382  .00001182  00000-0  52467-4 0  9992
2 59565  43.0032  60.3236 0001256 268.6095  91.4613 15.27580246134365
Source of the keplerian elements: AFSPC